FW0810 Weather Reports


time (UTC)temp
C
wind
direction
speed
KPH
gust
KPH
rain 1hr
cm
rain 24hr
cm
rain mn
cm
humidity
%
barometer
mb
20260903020803 18 263 0.0 0.0 0.00 0.00 0.00 76 1021.8
20260903020257 18 262 0.0 0.0 0.00 0.00 0.00 76 1021.7
20260903015754 19 262 0.0 0.0 0.00 0.00 0.00 76 1021.8
20260903015255 19 262 0.0 0.0 0.00 0.00 0.00 75 1021.8
20260903014743 19 262 0.0 0.0 0.00 0.00 0.00 75 1021.7
20260903014237 19 263 0.0 0.0 0.00 0.00 0.00 75 1021.7
20260903013730 19 263 0.0 0.0 0.00 0.00 0.00 74 1021.7
20260903013221 19 263 0.0 3.2 0.00 0.00 0.00 74 1021.7
20260903012716 19 263 0.0 3.2 0.00 0.00 0.00 74 1021.7
20260903011703 19 270 0.0 4.8 0.00 0.00 0.00 73 1021.6
20260903011156 19 268 0.0 4.8 0.00 0.00 0.00 73 1021.6
20260903010655 20 274 0.0 9.7 0.00 0.00 0.00 73 1021.6
20260903010208 20 284 0.0 9.7 0.00 0.00 0.00 73 1021.7
20260903005656 20 285 0.0 1.6 0.00 0.00 0.00 73 1021.6
20260903005156 20 274 0.0 4.8 0.00 0.00 0.00 72 1021.8
20260903004653 20 276 0.0 4.8 0.00 0.00 0.00 71 1021.7
20260903004154 20 267 0.0 4.8 0.00 0.00 0.00 71 1021.7
20260903003651 20 213 0.0 0.0 0.00 0.00 0.00 71 1021.7
20260903003151 20 213 0.0 0.0 0.00 0.00 0.00 70 1021.7
20260903002147 21 291 0.0 0.0 0.00 0.00 0.00 68 1021.6
20260903001647 21 295 0.0 1.6 0.00 0.00 0.00 68 1021.7
20260903001149 21 295 0.0 1.6 0.00 0.00 0.00 68 1021.7
20260903000647 21 296 0.0 1.6 0.00 0.00 0.00 68 1021.7
20260903000147 21 296 0.0 1.6 0.00 0.00 0.00 67 1021.8
20260902235150 21 302 0.0 0.0 0.00 0.00 0.00 66 1021.8
20260902234152 22 303 0.0 0.0 0.00 0.00 0.00 65 1021.8
20260902233641 22 303 0.0 1.6 0.00 0.00 0.00 65 1021.8
20260902233139 22 303 0.0 1.6 0.00 0.00 0.00 65 1021.7
20260902232634 22 272 0.0 0.0 0.00 0.00 0.00 65 1021.7
20260902232128 22 273 0.0 0.0 0.00 0.00 0.00 64 1021.7
20260902231620 22 272 0.0 0.0 0.00 0.00 0.00 64 1021.6
20260902231114 23 275 0.0 0.0 0.00 0.00 0.00 62 1021.5
20260902230611 23 276 0.0 0.0 0.00 0.00 0.00 60 1021.5
20260902230105 23 276 0.0 0.0 0.00 0.00 0.00 60 1021.4
20260902225558 23 276 0.0 0.0 0.00 0.00 0.00 59 1021.5
20260902224546 23 276 0.0 0.0 0.00 0.00 0.00 59 1021.5
20260902224040 24 276 0.0 0.0 0.00 0.00 0.00 58 1021.5
20260902223026 24 276 0.0 1.6 0.00 0.00 0.00 58 1021.5
20260902222523 24 276 0.0 0.0 0.00 0.00 0.00 57 1021.5
20260902222021 24 276 0.0 0.0 0.00 0.00 0.00 57 1021.5
20260902221515 24 276 0.0 3.2 0.00 0.00 0.00 57 1021.5
20260902221015 25 276 0.0 4.8 0.00 0.00 0.00 56 1021.5
20260902220512 25 277 0.0 4.8 0.00 0.00 0.00 56 1021.5
20260902220015 25 324 0.0 1.6 0.00 0.00 0.00 56 1021.5
20260902215509 25 278 0.0 1.6 0.00 0.00 0.00 56 1021.6
20260902215007 25 276 0.0 1.6 0.00 0.00 0.00 56 1021.4
20260902214006 25 335 0.0 1.6 0.00 0.00 0.00 55 1021.4
20260902213518 25 338 0.0 1.6 0.00 0.00 0.00 55 1021.4
20260902212958 25 344 0.0 1.6 0.00 0.00 0.00 54 1021.4
20260902212501 25 281 0.0 1.6 0.00 0.00 0.00 54 1021.3
20260902211958 26 279 0.0 0.0 0.00 0.00 0.00 54 1021.3
20260902211453 26 279 0.0 0.0 0.00 0.00 0.00 53 1021.4
20260902211004 26 279 0.0 0.0 0.00 0.00 0.00 53 1021.4
20260902210452 26 279 0.0 0.0 0.00 0.00 0.00 52 1021.3
20260902205948 26 280 0.0 3.2 0.00 0.00 0.00 51 1021.2
20260902205446 26 280 0.0 8.0 0.00 0.00 0.00 51 1021.2
20260902204948 26 311 0.0 8.0 0.00 0.00 0.00 51 1021.2
20260902204446 26 298 0.0 4.8 0.00 0.00 0.00 51 1021.2
20260902203442 26 299 1.6 9.7 0.00 0.00 0.00 50 1021.2
20260902202940 26 0 1.6 14.5 0.00 0.00 0.00 50 1021.2
20260902202439 26 262 1.6 14.5 0.00 0.00 0.00 49 1021.2
20260902201932 26 281 1.6 12.9 0.00 0.00 0.00 50 1021.2
20260902201425 26 299 0.0 4.8 0.00 0.00 0.00 52 1021.2
20260902200931 26 285 0.0 4.8 0.00 0.00 0.00 51 1021.2
20260902200429 26 326 0.0 3.2 0.00 0.00 0.00 52 1021.2
20260902195927 26 316 0.0 4.8 0.00 0.00 0.00 53 1021.1
20260902195426 26 277 0.0 4.8 0.00 0.00 0.00 52 1021.1
20260902194925 26 273 0.0 3.2 0.00 0.00 0.00 52 1021.1
20260902194425 26 273 0.0 3.2 0.00 0.00 0.00 51 1021.2
20260902193929 27 272 0.0 0.0 0.00 0.00 0.00 51 1021.1
20260902193436 27 272 0.0 0.0 0.00 0.00 0.00 51 1021.1
20260902192417 27 276 0.0 1.6 0.00 0.00 0.00 51 1021.0
20260902191914 27 283 0.0 3.2 0.00 0.00 0.00 51 1021.0
20260902191412 27 281 0.0 3.2 0.00 0.00 0.00 51 1020.9
20260902190913 27 288 0.0 1.6 0.00 0.00 0.00 51 1020.8
20260902190412 27 290 0.0 0.0 0.00 0.00 0.00 52 1020.9
20260902185912 27 278 0.0 1.6 0.00 0.00 0.00 52 1020.8
20260902185411 27 278 0.0 1.6 0.00 0.00 0.00 52 1020.8
20260902184910 27 281 0.0 1.6 0.00 0.00 0.00 52 1020.8
20260902184407 27 282 0.0 0.0 0.00 0.00 0.00 52 1020.7
20260902183907 28 283 0.0 0.0 0.00 0.00 0.00 51 1020.6
20260902182400 28 293 0.0 0.0 0.00 0.00 0.00 50 1020.4
20260902181859 28 285 0.0 1.6 0.00 0.00 0.00 49 1020.3
20260902181358 29 283 0.0 1.6 0.00 0.00 0.00 48 1020.2
20260902180854 29 283 0.0 6.4 0.00 0.00 0.00 48 1020.2
20260902180406 29 283 0.0 6.4 0.00 0.00 0.00 47 1019.9
20260902175851 29 276 0.0 6.4 0.00 0.00 0.00 46 1019.8
20260902175349 30 276 0.0 0.0 0.00 0.00 0.00 46 1019.7
20260902174847 30 276 0.0 0.0 0.00 0.00 0.00 45 1019.6
20260902174347 30 276 0.0 1.6 0.00 0.00 0.00 44 1019.6
20260902172342 31 277 0.0 1.6 0.00 0.00 0.00 41 1019.6
20260902171838 32 277 0.0 1.6 0.00 0.00 0.00 40 1019.5
20260902171335 32 277 0.0 1.6 0.00 0.00 0.00 40 1019.5
20260902170836 32 277 0.0 4.8 0.00 0.00 0.00 40 1019.5
20260902165832 32 277 0.0 0.0 0.00 0.00 0.00 39 1019.4
20260902165333 32 278 1.6 11.3 0.00 0.00 0.00 39 1019.4
20260902163820 32 297 0.0 8.0 0.00 0.00 0.00 39 1019.6
20260902163320 32 255 0.0 8.0 0.00 0.00 0.00 39 1019.7
20260902162821 32 309 0.0 0.0 0.00 0.00 0.00 39 1019.7
20260902162323 32 300 0.0 0.0 0.00 0.00 0.00 38 1019.7
20260902161821 32 300 0.0 0.0 0.00 0.00 0.00 38 1019.7
20260902161321 32 302 0.0 1.6 0.00 0.00 0.00 37 1019.8
20260902160820 32 304 0.0 1.6 0.00 0.00 0.00 37 1019.8
20260902160320 32 300 0.0 8.0 0.00 0.00 0.00 36 1019.8
20260902155820 33 303 0.0 8.0 0.00 0.00 0.00 36 1019.9
20260902155319 33 265 0.0 3.2 0.00 0.00 0.00 35 1019.9
20260902154821 33 258 0.0 9.7 0.00 0.00 0.00 35 1019.8
20260902154318 33 319 0.0 9.7 0.00 0.00 0.00 33 1019.9
20260902153821 33 352 0.0 9.7 0.00 0.00 0.00 33 1020.0
20260902153318 33 1 0.0 9.7 0.00 0.00 0.00 33 1020.0
20260902152817 33 326 1.6 9.7 0.00 0.00 0.00 33 1020.0
20260902151812 33 266 1.6 12.9 0.00 0.00 0.00 32 1019.9
20260902151311 33 183 1.6 12.9 0.00 0.00 0.00 31 1019.8
20260902150811 33 274 1.6 11.3 0.00 0.00 0.00 33 1019.8
20260902150312 33 266 0.0 6.4 0.00 0.00 0.00 35 1019.8
20260902145812 33 265 1.6 11.3 0.00 0.00 0.00 33 1019.7
20260902145311 33 294 1.6 11.3 0.00 0.00 0.00 32 1019.7
20260902144815 33 278 0.0 9.7 0.00 0.00 0.00 32 1019.7
20260902144312 33 292 0.0 6.4 0.00 0.00 0.00 32 1019.8
20260902143813 33 310 0.0 3.2 0.00 0.00 0.00 32 1019.8
20260902143312 33 187 0.0 3.2 0.00 0.00 0.00 33 1019.8
20260902142813 33 198 0.0 3.2 0.00 0.00 0.00 33 1019.7
20260902142312 33 198 0.0 4.8 0.00 0.00 0.00 33 1019.9
20260902141807 33 257 1.6 9.7 0.00 0.00 0.00 33 1020.0
20260902141308 33 314 1.6 11.3 0.00 0.00 0.00 32 1020.0
20260902140809 33 290 3.2 12.9 0.00 0.00 0.00 33 1020.2
20260902140309 33 252 3.2 12.9 0.00 0.00 0.00 32 1020.4
20260902135807 34 278 1.6 11.3 0.00 0.00 0.00 32 1020.4
20260902135307 34 151 1.6 9.7 0.00 0.00 0.00 33 1020.5
20260902134809 34 272 1.6 8.0 0.00 0.00 0.00 32 1020.4
20260902134309 33 279 0.0 4.8 0.00 0.00 0.00 33 1020.5
20260902133808 33 190 0.0 3.2 0.00 0.00 0.00 34 1020.6
20260902133307 33 345 1.6 9.7 0.00 0.00 0.00 34 1020.7
20260902132807 33 149 1.6 14.5 0.00 0.00 0.00 33 1020.7
20260902131308 33 154 0.0 8.0 0.00 0.00 0.00 32 1020.9
20260902130807 33 172 1.6 12.9 0.00 0.00 0.00 34 1020.9
20260902130309 33 221 1.6 12.9 0.00 0.00 0.00 34 1021.0
20260902125807 33 302 1.6 11.3 0.00 0.00 0.00 32 1021.0
20260902125307 33 285 0.0 6.4 0.00 0.00 0.00 36 1021.0
20260902124806 33 349 1.6 14.5 0.00 0.00 0.00 35 1021.2
20260902124305 33 270 1.6 14.5 0.00 0.00 0.00 35 1021.2
20260902123804 33 271 1.6 12.9 0.00 0.00 0.00 35 1021.3
20260902123304 33 185 3.2 16.1 0.00 0.00 0.00 36 1021.3
20260902122305 33 256 1.6 11.3 0.00 0.00 0.00 35 1021.5
20260902121804 33 286 1.6 12.9 0.00 0.00 0.00 36 1021.5
20260902121302 32 306 1.6 12.9 0.00 0.00 0.00 36 1021.6
20260902120759 32 299 1.6 11.3 0.00 0.00 0.00 35 1021.6
20260902120300 32 158 0.0 12.9 0.00 0.00 0.00 37 1021.6
20260902115800 32 321 1.6 14.5 0.00 0.00 0.00 38 1021.7
20260902115258 32 276 1.6 14.5 0.00 0.00 0.00 37 1021.7
20260902114758 32 342 1.6 11.3 0.00 0.00 0.00 37 1021.8
20260902113755 32 326 1.6 9.7 0.00 0.00 0.00 38 1021.8
20260902112740 32 288 0.0 11.3 0.00 0.00 0.00 39 1021.8
20260902112236 32 311 0.0 11.3 0.00 0.00 0.00 39 1021.8
20260902111730 32 275 1.6 12.9 0.00 0.00 0.00 41 1021.9
20260902111223 31 296 3.2 12.9 0.00 0.00 0.00 40 1022.0
20260902110717 31 272 3.2 12.9 0.00 0.00 0.00 38 1022.0
20260902110212 31 278 1.6 12.9 0.00 0.00 0.00 40 1022.0
20260902105705 31 281 3.2 12.9 0.00 0.00 0.00 38 1022.0
20260902105200 31 277 1.6 12.9 0.00 0.00 0.00 39 1022.1
20260902104655 31 176 0.0 3.2 0.00 0.00 0.00 39 1022.2
20260902104148 31 331 0.0 4.8 0.00 0.00 0.00 38 1022.2
20260902103641 31 354 1.6 11.3 0.00 0.00 0.00 38 1022.2
20260902103135 31 356 1.6 12.9 0.00 0.00 0.00 39 1022.3
20260902102630 31 333 1.6 12.9 0.00 0.00 0.00 38 1022.4
20260902102122 31 252 1.6 6.4 0.00 0.00 0.00 39 1022.4
20260902101112 31 310 0.0 6.4 0.00 0.00 0.00 40 1022.5
20260902100605 31 300 0.0 4.8 0.00 0.00 0.00 41 1022.4
20260902100106 31 288 0.0 4.8 0.00 0.00 0.00 40 1022.5
20260902095550 31 313 0.0 6.4 0.00 0.00 0.00 40 1022.6
20260902095046 31 263 0.0 6.4 0.00 0.00 0.00 40 1022.6
20260902094542 30 158 0.0 6.4 0.00 0.00 0.00 43 1022.6
20260902094033 30 184 0.0 6.4 0.00 0.00 0.00 44 1022.6
20260902092515 30 117 1.6 8.0 0.00 0.00 0.00 45 1022.8
20260902092010 30 257 1.6 9.7 0.00 0.00 0.00 46 1022.9
20260902091504 30 285 0.0 8.0 0.00 0.00 0.00 46 1022.7
20260902090453 29 284 0.0 4.8 0.00 0.00 0.00 47 1022.7
20260902085945 29 132 0.0 4.8 0.00 0.00 0.00 48 1022.7
20260902084935 28 110 0.0 1.6 0.00 0.00 0.00 54 1022.7
20260902084428 28 103 0.0 1.6 0.00 0.00 0.00 54 1022.7
20260902083922 28 103 0.0 1.6 0.00 0.00 0.00 57 1022.6
20260902083415 28 103 0.0 1.6 0.00 0.00 0.00 58 1022.7
20260902082915 28 103 0.0 1.6 0.00 0.00 0.00 58 1022.5
20260902082415 27 103 0.0 1.6 0.00 0.00 0.00 59 1022.6
20260902081913 27 103 0.0 1.6 0.00 0.00 0.00 60 1022.6
20260902081413 27 103 0.0 1.6 0.00 0.00 0.00 60 1022.6
20260902080910 26 103 0.0 1.6 0.00 0.00 0.00 60 1022.6
20260902080406 26 103 0.0 1.6 0.00 0.00 0.00 62 1022.6
20260902075906 26 102 0.0 1.6 0.00 0.00 0.00 62 1022.6
20260902075403 26 102 0.0 3.2 0.00 0.00 0.00 62 1022.6
20260902074903 25 103 0.0 3.2 0.00 0.00 0.00 63 1022.5
20260902073401 25 102 0.0 8.0 0.00 0.00 0.00 64 1022.4
20260902072857 24 103 0.0 8.0 0.00 0.00 0.00 64 1022.4
20260902072355 24 99 0.0 4.8 0.00 0.00 0.00 66 1022.4
20260902071352 23 99 0.0 6.4 0.00 0.00 0.00 67 1022.5
20260902070849 23 96 0.0 6.4 0.00 0.00 0.00 70 1022.6
20260902065345 22 217 0.0 1.6 0.00 0.00 0.00 76 1022.6
20260902064847 22 267 0.0 0.0 0.00 0.00 0.00 77 1022.5
20260902064340 21 269 0.0 0.0 0.00 0.00 0.00 80 1022.5
20260902063834 20 269 0.0 0.0 0.00 0.00 0.00 82 1022.4
20260902063335 20 269 0.0 0.0 0.00 0.00 0.00 83 1022.5
20260902062834 20 269 0.0 0.0 0.00 0.00 0.00 84 1022.5
20260902062336 19 269 0.0 0.0 0.00 0.00 0.00 84 1022.5
20260902061836 19 269 0.0 0.0 0.00 0.00 0.00 85 1022.5
20260902061334 18 269 0.0 0.0 0.00 0.00 0.00 86 1022.5
20260902060830 18 269 0.0 0.0 0.00 0.00 0.00 86 1022.4
20260902060330 18 269 0.0 0.0 0.00 0.00 0.00 86 1022.4
20260902055829 18 269 0.0 0.0 0.00 0.00 0.00 86 1022.3
20260902055328 18 269 0.0 1.6 0.00 0.00 0.00 86 1022.3
20260902054827 18 269 0.0 3.2 0.00 0.00 0.00 85 1022.3
20260902054328 18 269 0.0 3.2 0.00 0.00 0.00 85 1022.4
20260902053826 18 267 0.0 0.0 0.00 0.00 0.00 85 1022.4
20260902053342 18 267 0.0 0.0 0.00 0.00 0.00 86 1022.2
20260902052327 17 267 0.0 0.0 0.00 0.00 0.00 87 1022.1
20260902051827 17 267 0.0 0.0 0.00 0.00 0.00 88 1022.1
20260902051326 17 267 0.0 0.0 0.00 0.00 0.00 88 1022.0
20260902050825 17 267 0.0 0.0 0.00 0.00 0.00 87 1022.0
20260902050324 17 267 0.0 0.0 0.00 0.00 0.00 87 1022.0
20260902045824 17 267 0.0 0.0 0.00 0.00 0.00 87 1022.0
20260902043826 17 263 0.0 0.0 0.00 0.00 0.00 87 1022.0
20260902042320 17 263 0.0 0.0 0.00 0.00 0.00 86 1022.0
20260902041822 17 263 0.0 0.0 0.00 0.00 0.00 86 1021.9
20260902041320 17 269 0.0 0.0 0.00 0.00 0.00 86 1021.9
20260902040821 17 269 0.0 0.0 0.00 0.00 0.00 86 1021.9
20260902040320 17 269 0.0 1.6 0.00 0.00 0.00 86 1021.8
20260902035820 17 269 0.0 1.6 0.00 0.00 0.00 86 1021.9
20260902035321 17 269 0.0 4.8 0.00 0.00 0.00 85 1021.8
20260902034822 18 269 0.0 4.8 0.00 0.00 0.00 85 1021.8
20260902034319 18 266 0.0 0.0 0.00 0.00 0.00 85 1021.9
20260902033817 18 266 0.0 0.0 0.00 0.00 0.00 85 1021.8
20260902033317 18 266 0.0 0.0 0.00 0.00 0.00 85 1021.8
20260902032817 18 266 0.0 0.0 0.00 0.00 0.00 85 1021.9
20260902032316 18 266 0.0 0.0 0.00 0.00 0.00 85 1021.9
20260902031815 18 266 0.0 0.0 0.00 0.00 0.00 84 1022.0
20260902031328 18 268 0.0 0.0 0.00 0.00 0.00 84 1022.1
20260902030817 18 268 0.0 0.0 0.00 0.00 0.00 85 1022.0
20260902030317 18 268 0.0 1.6 0.00 0.00 0.00 84 1022.0
20260902025808 18 268 0.0 1.6 0.00 0.00 0.00 84 1022.0
20260902025306 18 266 0.0 0.0 0.00 0.00 0.00 85 1022.0
20260902024756 18 266 0.0 0.0 0.00 0.00 0.00 85 1022.0
20260902024250 18 266 0.0 0.0 0.00 0.00 0.00 85 1022.0
20260902023745 18 273 0.0 4.8 0.00 0.00 0.00 84 1022.0
20260902023238 18 276 0.0 6.4 0.00 0.00 0.00 84 1022.0
20260902022227 18 274 0.0 3.2 0.00 0.00 0.00 84 1022.0
20260902021721 18 275 0.0 3.2 0.00 0.00 0.00 84 1022.0